FW7006 Weather Reports


time (UTC)temp
F
wind
direction
speed
knots
gust
knots
rain 1hr
in
rain 24hr
in
rain mn
in
humidity
%
barometer
mb
20260902231700 88 213 3.5 6.1 0.00 0.00 0.00 75 1014.5
20260902231159 89 213 4.3 6.1 0.00 0.00 0.00 75 1014.4
20260902230655 89 210 5.2 9.6 0.00 0.00 0.00 74 1014.4
20260902230154 89 216 3.5 6.1 0.00 0.00 0.00 74 1014.3
20260902225649 89 211 6.1 7.8 0.00 0.00 0.00 73 1014.5
20260902225148 90 212 3.5 7.8 0.00 0.00 0.00 73 1014.7
20260902224647 90 214 4.3 7.0 0.00 0.00 0.00 73 1014.3
20260902224143 90 221 4.3 7.8 0.00 0.00 0.00 72 1014.5
20260902223639 90 218 2.6 8.7 0.00 0.00 0.00 72 1014.6
20260902223138 91 220 3.5 7.0 0.00 0.00 0.00 71 1014.6
20260902222638 90 234 4.3 8.7 0.00 0.00 0.00 71 1014.4
20260902222136 91 208 3.5 7.8 0.00 0.00 0.00 70 1014.3
20260902221631 91 213 5.2 7.8 0.00 0.00 0.00 69 1014.5
20260902221126 91 230 3.5 7.0 0.00 0.00 0.00 69 1014.6
20260902220622 91 229 5.2 7.0 0.00 0.00 0.00 71 1014.4
20260902220121 91 225 4.3 7.8 0.00 0.00 0.00 69 1014.6
20260902215618 91 221 4.3 10.4 0.00 0.00 0.00 70 1014.4
20260902215112 91 222 8.7 10.4 0.00 0.00 0.00 69 1014.4
20260902214607 91 223 5.2 13.9 0.00 0.00 0.00 69 1014.5
20260902214106 91 217 6.1 11.3 0.00 0.00 0.00 69 1014.6
20260902213603 92 221 6.1 12.2 0.00 0.00 0.00 67 1014.6
20260902213101 92 227 5.2 12.2 0.00 0.00 0.00 67 1014.7
20260902212557 92 215 2.6 10.4 0.00 0.00 0.00 68 1014.5
20260902212053 92 229 4.3 11.3 0.00 0.00 0.00 68 1014.4
20260902211549 92 223 4.3 10.4 0.00 0.00 0.00 70 1014.6
20260902211049 92 245 6.1 7.8 0.00 0.00 0.00 69 1014.4
20260902210544 92 212 6.1 8.7 0.00 0.00 0.00 66 1014.5
20260902210044 92 220 7.8 13.9 0.00 0.00 0.00 68 1014.6
20260902205543 92 212 7.8 13.9 0.00 0.00 0.00 67 1014.8
20260902205039 92 222 8.7 11.3 0.00 0.00 0.00 68 1014.7
20260902204538 93 215 4.3 7.0 0.00 0.00 0.00 68 1014.9
20260902204033 93 228 7.8 11.3 0.00 0.00 0.00 67 1014.8
20260902203529 93 220 3.5 5.2 0.00 0.00 0.00 67 1014.9
20260902203028 92 227 5.2 12.2 0.00 0.00 0.00 67 1015.0
20260902202524 93 212 8.7 12.2 0.00 0.00 0.00 67 1015.1
20260902202020 93 235 4.3 12.2 0.00 0.00 0.00 66 1015.2
20260902201516 93 213 6.1 13.9 0.00 0.00 0.00 66 1015.2
20260902201015 93 242 4.3 10.4 0.00 0.00 0.00 66 1015.3
20260902200510 93 215 7.0 10.4 0.00 0.00 0.00 65 1015.1
20260902200006 93 209 7.0 10.4 0.00 0.00 0.00 65 1015.3
20260902195503 92 237 6.1 8.7 0.00 0.00 0.00 65 1015.4
20260902195001 93 216 5.2 10.4 0.00 0.00 0.00 64 1015.1
20260902194501 93 231 2.6 6.1 0.00 0.00 0.00 69 1015.1
20260902193956 93 219 3.5 9.6 0.00 0.00 0.00 66 1015.6
20260902193452 93 276 4.3 6.1 0.00 0.00 0.00 63 1015.6
20260902192950 93 228 5.2 11.3 0.00 0.00 0.00 66 1015.6
20260902192449 93 214 2.6 9.6 0.00 0.00 0.00 63 1015.6
20260902191948 93 226 5.2 12.2 0.00 0.00 0.00 65 1015.6
20260902191443 93 222 4.3 7.0 0.00 0.00 0.00 64 1015.6
20260902190939 93 202 4.3 9.6 0.00 0.00 0.00 66 1015.9
20260902190434 93 219 6.1 11.3 0.00 0.00 0.00 64 1016.0
20260902185930 93 232 2.6 7.0 0.00 0.00 0.00 66 1016.2
20260902185426 92 264 5.2 9.6 0.00 0.00 0.00 66 1015.7
20260902184921 92 232 3.5 10.4 0.00 0.00 0.00 65 1015.8
20260902184416 93 246 4.3 12.2 0.00 0.00 0.00 66 1015.8
20260902183912 93 225 7.0 14.8 0.00 0.00 0.00 62 1016.0
20260902183408 93 214 6.1 8.7 0.00 0.00 0.00 66 1016.3
20260902182903 92 210 7.0 8.7 0.00 0.00 0.00 65 1016.2
20260902182400 92 210 5.2 9.6 0.00 0.00 0.00 63 1016.3
20260902181856 92 219 5.2 11.3 0.00 0.00 0.00 66 1016.2
20260902181351 92 232 3.5 13.0 0.00 0.00 0.00 65 1016.2
20260902180850 92 202 4.3 11.3 0.00 0.00 0.00 68 1016.1
20260902180346 93 218 3.5 8.7 0.00 0.00 0.00 68 1016.2
20260902175841 92 228 7.8 10.4 0.00 0.00 0.00 66 1016.3
20260902175337 92 228 2.6 7.0 0.00 0.00 0.00 69 1016.6
20260902174832 92 213 7.0 12.2 0.00 0.00 0.00 67 1016.5
20260902174329 93 210 4.3 7.0 0.00 0.00 0.00 68 1016.4
20260902173825 92 209 3.5 7.0 0.00 0.00 0.00 67 1016.6
20260902173325 91 241 3.5 8.7 0.00 0.00 0.00 67 1016.5
20260902172824 92 216 5.2 9.6 0.00 0.00 0.00 65 1016.7
20260902172319 91 228 3.5 7.8 0.00 0.00 0.00 72 1016.6
20260902171814 91 265 2.6 9.6 0.00 0.00 0.00 74 1016.6
20260902171309 92 206 6.1 7.8 0.00 0.00 0.00 65 1016.9
20260902170806 91 275 1.7 8.7 0.00 0.00 0.00 70 1016.7
20260902170301 92 236 3.5 6.1 0.00 0.00 0.00 69 1016.4
20260902165756 91 234 3.5 7.8 0.00 0.00 0.00 71 1016.6
20260902165255 91 310 1.7 6.1 0.00 0.00 0.00 70 1016.9
20260902164751 90 206 5.2 7.8 0.00 0.00 0.00 71 1017.0
20260902164250 91 253 3.5 9.6 0.00 0.00 0.00 70 1016.8
20260902163746 90 239 3.5 7.8 0.00 0.00 0.00 73 1017.1
20260902163245 90 212 2.6 7.8 0.00 0.00 0.00 73 1017.0
20260902162743 90 298 1.7 5.2 0.00 0.00 0.00 75 1017.0
20260902162238 91 230 6.1 10.4 0.00 0.00 0.00 70 1017.0
20260902161734 90 313 2.6 7.8 0.00 0.00 0.00 73 1016.8
20260902161229 90 257 4.3 6.1 0.00 0.00 0.00 73 1017.3
20260902160726 89 236 3.5 9.6 0.00 0.00 0.00 72 1016.9
20260902160226 89 216 2.6 6.1 0.00 0.00 0.00 77 1016.9
20260902155724 88 297 3.5 7.8 0.00 0.00 0.00 75 1016.9
20260902155223 89 258 0.9 7.8 0.00 0.00 0.00 74 1016.8
20260902154718 90 263 1.7 5.2 0.00 0.00 0.00 72 1017.1
20260902154213 89 241 5.2 7.0 0.00 0.00 0.00 76 1017.0
20260902153713 88 259 3.5 9.6 0.00 0.00 0.00 75 1017.0
20260902153212 88 218 2.6 8.7 0.00 0.00 0.00 75 1016.9
20260902152709 88 231 3.5 5.2 0.00 0.00 0.00 78 1016.8
20260902152204 88 272 1.7 5.2 0.00 0.00 0.00 78 1016.9
20260902151659 87 223 1.7 6.1 0.00 0.00 0.00 78 1016.9
20260902151154 87 251 0.0 7.0 0.00 0.00 0.00 80 1016.8
20260902150649 87 298 4.3 10.4 0.00 0.00 0.00 77 1017.0
20260902150145 87 275 3.5 6.1 0.00 0.00 0.00 78 1016.8
20260902145644 87 227 4.3 7.8 0.00 0.00 0.00 80 1016.7
20260902145144 86 253 1.7 7.0 0.00 0.00 0.00 79 1016.9
20260902144641 86 218 3.5 4.3 0.00 0.00 0.00 79 1017.0
20260902144136 86 255 3.5 9.6 0.00 0.00 0.00 80 1017.0
20260902143630 85 234 1.7 6.1 0.00 0.00 0.00 80 1016.8
20260902143126 85 296 4.3 6.1 0.00 0.00 0.00 81 1017.0
20260902142621 85 265 2.6 7.8 0.00 0.00 0.00 82 1017.1
20260902142117 84 273 0.9 7.8 0.00 0.00 0.00 81 1016.9
20260902141616 84 234 1.7 4.3 0.00 0.00 0.00 84 1017.3
20260902141113 83 295 2.6 7.0 0.00 0.00 0.00 83 1017.0
20260902140613 83 292 1.7 5.2 0.00 0.00 0.00 85 1016.7
20260902140108 82 281 2.6 4.3 0.00 0.00 0.00 84 1017.0
20260902135607 82 275 3.5 6.1 0.00 0.00 0.00 83 1016.9
20260902135102 82 262 3.5 6.1 0.00 0.00 0.00 85 1017.0
20260902134558 81 233 1.7 2.6 0.00 0.00 0.00 87 1016.8
20260902134057 80 297 0.0 2.6 0.00 0.00 0.00 89 1017.1
20260902133553 80 259 0.9 5.2 0.00 0.00 0.00 90 1017.3
20260902133053 79 227 1.7 3.5 0.00 0.00 0.00 90 1016.9
20260902132548 79 245 0.0 3.5 0.00 0.00 0.00 90 1017.1
20260902132043 79 213 2.6 4.3 0.00 0.00 0.00 89 1016.9
20260902131539 79 239 0.9 5.2 0.00 0.00 0.00 89 1016.9
20260902131039 79 238 1.7 7.0 0.00 0.00 0.00 91 1017.1
20260902130535 79 196 1.7 5.2 0.00 0.00 0.00 91 1017.0
20260902130031 78 183 1.7 4.3 0.00 0.00 0.00 92 1016.9
20260902125526 78 220 0.9 3.5 0.00 0.00 0.00 92 1017.0
20260902125022 77 227 2.6 6.1 0.00 0.00 0.00 92 1016.9
20260902124518 77 230 0.0 3.5 0.00 0.00 0.00 92 1016.9
20260902124013 77 224 2.6 4.3 0.00 0.00 0.00 94 1017.0
20260902123509 76 253 1.7 7.8 0.00 0.00 0.00 93 1016.8
20260902123008 76 210 1.7 3.5 0.00 0.00 0.00 94 1017.0
20260902122503 75 221 1.7 2.6 0.00 0.00 0.00 95 1016.9
20260902121958 75 214 0.0 5.2 0.00 0.00 0.00 95 1016.8
20260902121453 75 227 1.7 2.6 0.00 0.00 0.00 95 1016.8
20260902120948 75 214 2.6 3.5 0.00 0.00 0.00 95 1016.7
20260902120445 74 213 3.5 5.2 0.00 0.00 0.00 95 1016.9
20260902115944 74 211 0.9 4.3 0.00 0.00 0.00 95 1017.0
20260902115440 74 215 3.5 3.5 0.00 0.00 0.00 96 1016.8
20260902114937 74 215 1.7 2.6 0.00 0.00 0.00 96 1016.6
20260902114432 74 106 0.0 2.6 0.00 0.00 0.00 96 1016.6
20260902113932 73 213 0.9 2.6 0.00 0.00 0.00 97 1016.7
20260902113428 73 150 0.0 1.7 0.00 0.00 0.00 98 1016.5
20260902112928 73 147 0.0 1.7 0.00 0.00 0.00 97 1016.4
20260902112424 73 59 0.0 1.7 0.00 0.00 0.00 98 1016.4
20260902111920 73 228 1.7 2.6 0.00 0.00 0.00 98 1016.2
20260902111416 73 154 0.0 2.6 0.00 0.00 0.00 98 1016.5
20260902110912 73 193 0.0 1.7 0.00 0.00 0.00 98 1016.4
20260902110408 72 144 0.9 2.6 0.00 0.00 0.00 99 1016.1
20260902105907 72 156 0.0 2.6 0.00 0.00 0.00 99 1016.5
20260902105402 72 201 1.7 1.7 0.00 0.00 0.00 98 1016.4
20260902104857 73 214 0.9 1.7 0.00 0.00 0.00 98 1016.3
20260902104354 73 201 0.9 2.6 0.00 0.00 0.00 98 1016.2
20260902103853 73 191 0.0 2.6 0.00 0.00 0.00 97 1016.2
20260902103349 73 224 2.6 3.5 0.00 0.00 0.00 98 1016.3
20260902102849 73 93 0.0 3.5 0.00 0.00 0.00 98 1016.1
20260902102348 73 178 0.9 3.5 0.00 0.00 0.00 98 1016.1
20260902101842 73 193 1.7 2.6 0.00 0.00 0.00 98 1015.8
20260902101336 73 206 0.9 1.7 0.00 0.00 0.00 98 1016.0
20260902100831 73 206 0.9 5.2 0.00 0.00 0.00 98 1016.1
20260902100330 73 150 0.9 5.2 0.00 0.00 0.00 98 1015.9
20260902095826 73 198 1.7 2.6 0.00 0.00 0.00 98 1015.9
20260902095325 73 164 1.7 3.5 0.00 0.00 0.00 98 1015.9
20260902094820 73 147 0.0 3.5 0.00 0.00 0.00 98 1016.0
20260902094316 73 39 0.9 2.6 0.00 0.00 0.00 97 1015.9
20260902093815 73 172 0.9 3.5 0.00 0.00 0.00 97 1015.9
20260902093310 74 92 0.0 2.6 0.00 0.00 0.00 96 1015.9
20260902092810 74 133 0.0 6.1 0.00 0.00 0.00 96 1016.0
20260902092305 74 215 1.7 3.5 0.00 0.00 0.00 97 1016.2
20260902091805 74 193 0.0 2.6 0.00 0.00 0.00 97 1016.0
20260902091301 74 237 0.0 3.5 0.00 0.00 0.00 97 1016.0
20260902090757 74 154 0.0 0.9 0.00 0.00 0.00 98 1016.0
20260902090256 74 156 0.0 1.7 0.00 0.00 0.00 98 1016.0
20260902085755 73 133 0.9 1.7 0.00 0.00 0.00 98 1015.8
20260902085251 73 105 0.9 1.7 0.00 0.00 0.00 98 1016.0
20260902084747 73 73 0.0 1.7 0.00 0.00 0.00 98 1015.9
20260902084243 74 204 0.0 1.7 0.00 0.00 0.00 98 1015.9
20260902083738 73 201 0.0 1.7 0.00 0.00 0.00 99 1015.8
20260902083238 73 133 0.9 1.7 0.00 0.00 0.00 99 1015.9
20260902082733 73 256 0.0 1.7 0.00 0.00 0.00 99 1015.9
20260902082230 73 326 0.0 0.9 0.00 0.00 0.00 99 1016.0
20260902081726 73 25 0.0 0.9 0.00 0.00 0.00 99 1015.9
20260902081221 74 44 0.0 1.7 0.00 0.00 0.00 97 1015.8
20260902080716 74 131 0.0 1.7 0.00 0.00 0.00 97 1015.7
20260902080213 74 220 0.0 2.6 0.00 0.00 0.00 97 1015.8
20260902075712 75 166 0.0 0.9 0.00 0.00 0.00 97 1015.7
20260902075209 75 205 0.0 1.7 0.00 0.00 0.00 97 1015.8
20260902074708 75 164 0.0 2.6 0.00 0.00 0.00 97 1015.8
20260902074203 75 152 0.9 1.7 0.00 0.00 0.00 97 1015.8
20260902073659 75 242 0.0 1.7 0.00 0.00 0.00 97 1015.9
20260902073155 75 243 0.0 2.6 0.00 0.00 0.00 97 1015.8
20260902072651 75 174 0.0 1.7 0.00 0.00 0.00 97 1015.8
20260902072147 75 204 0.9 1.7 0.00 0.00 0.00 97 1015.7
20260902071642 75 197 0.9 2.6 0.00 0.00 0.00 97 1015.8
20260902071138 75 192 1.7 3.5 0.00 0.00 0.00 97 1015.8
20260902070633 75 188 0.9 2.6 0.00 0.00 0.00 98 1015.8
20260902070133 74 184 0.0 1.7 0.00 0.00 0.00 99 1015.7
20260902065632 74 129 0.0 0.9 0.00 0.00 0.00 99 1015.6
20260902065128 74 72 0.0 0.0 0.00 0.00 0.00 99 1015.7
20260902064623 74 72 0.0 0.0 0.00 0.00 0.00 99 1015.9
20260902064119 75 263 0.0 0.9 0.00 0.00 0.00 98 1015.9
20260902063614 75 205 0.0 0.0 0.00 0.00 0.00 97 1015.9
20260902063108 75 322 0.0 0.9 0.00 0.00 0.00 96 1015.7
20260902062607 76 220 0.0 1.7 0.00 0.00 0.00 95 1015.9
20260902062103 76 203 1.7 2.6 0.00 0.00 0.00 96 1015.9
20260902061602 76 212 0.0 1.7 0.00 0.00 0.00 96 1015.9
20260902061058 76 66 0.0 1.7 0.00 0.00 0.00 96 1016.0
20260902060555 76 142 0.0 1.7 0.00 0.00 0.00 96 1016.0
20260902060051 76 185 0.0 1.7 0.00 0.00 0.00 96 1016.0
20260902055546 76 148 0.0 1.7 0.00 0.00 0.00 96 1016.1
20260902055042 76 177 0.9 1.7 0.00 0.00 0.00 96 1015.9
20260902054537 76 135 0.0 1.7 0.00 0.00 0.00 96 1015.9
20260902054032 76 198 1.7 2.6 0.00 0.00 0.00 96 1015.7
20260902053527 76 151 0.0 1.7 0.00 0.00 0.00 96 1015.8
20260902053027 77 216 0.0 3.5 0.00 0.00 0.00 96 1015.7
20260902052521 76 227 2.6 3.5 0.00 0.00 0.00 96 1015.8
20260902052017 77 154 0.0 2.6 0.00 0.00 0.00 96 1015.8
20260902051517 77 164 0.0 3.5 0.00 0.00 0.00 95 1015.7
20260902051015 77 194 1.7 6.1 0.00 0.00 0.00 95 1015.7
20260902050510 77 211 3.5 5.2 0.00 0.00 0.00 95 1015.5
20260902050008 78 218 2.6 6.1 0.00 0.00 0.00 94 1015.6
20260902045501 78 228 3.5 7.8 0.00 0.00 0.00 94 1015.6
20260902044958 78 221 3.5 8.7 0.00 0.00 0.00 94 1015.7
20260902044458 78 214 3.5 7.0 0.00 0.00 0.00 94 1015.7
20260902043954 78 213 4.3 7.8 0.00 0.00 0.00 94 1015.5
20260902043448 78 208 5.2 7.8 0.00 0.00 0.00 94 1015.6
20260902042943 78 223 5.2 7.8 0.00 0.00 0.00 94 1015.6
20260902042443 78 213 3.5 7.0 0.00 0.00 0.00 94 1015.7
20260902041938 77 210 3.5 5.2 0.00 0.00 0.00 95 1015.8
20260902041433 77 224 0.9 5.2 0.00 0.00 0.00 95 1015.6
20260902040932 77 211 0.9 3.5 0.00 0.00 0.00 95 1015.8
20260902040427 78 244 0.0 3.5 0.00 0.00 0.00 95 1015.8
20260902035926 78 113 0.0 1.7 0.00 0.00 0.00 94 1015.8
20260902035422 78 199 1.7 3.5 0.00 0.00 0.00 94 1015.8
20260902034921 78 214 1.7 2.6 0.00 0.00 0.00 94 1015.8
20260902034416 78 194 1.7 5.2 0.00 0.00 0.00 93 1015.8
20260902033915 78 216 1.7 5.2 0.00 0.00 0.00 93 1016.0
20260902033414 79 210 2.6 5.2 0.00 0.00 0.00 93 1016.0
20260902032914 78 206 1.7 4.3 0.00 0.00 0.00 94 1015.7
20260902032408 79 180 0.9 4.3 0.00 0.00 0.00 93 1015.9
20260902031903 78 191 1.7 4.3 0.00 0.00 0.00 93 1016.1
20260902031359 79 205 1.7 2.6 0.00 0.00 0.00 93 1016.0
20260902030854 79 196 1.7 2.6 0.00 0.00 0.00 93 1016.1
20260902030348 79 224 1.7 4.3 0.00 0.00 0.00 93 1016.1
20260902025847 79 224 2.6 4.3 0.00 0.00 0.00 93 1015.9
20260902025343 79 212 1.7 4.3 0.00 0.00 0.00 92 1016.2
20260902024838 79 206 0.0 1.7 0.00 0.00 0.00 93 1016.0
20260902024334 79 212 0.9 4.3 0.00 0.00 0.00 93 1015.9
20260902023828 79 123 1.7 2.6 0.00 0.00 0.00 93 1015.7
20260902023324 79 221 2.6 2.6 0.00 0.00 0.00 93 1015.9
20260902022823 79 180 0.0 2.6 0.00 0.00 0.00 93 1015.6
20260902022318 80 223 1.7 3.5 0.00 0.00 0.00 92 1015.8
20260902021814 79 227 0.0 1.7 0.00 0.00 0.00 92 1015.8
20260902021309 79 191 0.0 3.5 0.00 0.00 0.00 92 1015.9
20260902020805 80 208 2.6 3.5 0.00 0.00 0.00 92 1015.7
20260902020301 80 213 0.9 1.7 0.00 0.00 0.00 92 1015.9
20260902015755 80 204 0.0 3.5 0.00 0.00 0.00 91 1015.8
20260902015252 80 198 1.7 2.6 0.00 0.00 0.00 91 1015.6
20260902014747 81 230 0.0 2.6 0.00 0.00 0.00 90 1015.6
20260902014244 81 199 1.7 3.5 0.00 0.00 0.00 89 1015.8
20260902013742 81 214 1.7 3.5 0.00 0.00 0.00 89 1015.7
20260902013238 81 183 0.0 4.3 0.00 0.00 0.00 89 1015.5
20260902012733 81 215 1.7 5.2 0.00 0.00 0.00 88 1015.6
20260902012229 82 231 0.9 5.2 0.00 0.00 0.00 88 1015.6
20260902011724 82 225 1.7 4.3 0.00 0.00 0.00 88 1015.5
20260902011224 82 214 2.6 5.2 0.00 0.00 0.00 88 1015.3
20260902010723 82 176 0.0 3.5 0.00 0.00 0.00 88 1015.1
20260902010219 82 209 1.7 5.2 0.00 0.00 0.00 88 1015.2
20260902005717 82 217 0.0 2.6 0.00 0.00 0.00 88 1015.1
20260902005214 82 191 0.9 3.5 0.00 0.00 0.00 87 1015.3
20260902004713 82 231 1.7 4.3 0.00 0.00 0.00 87 1015.3
20260902004208 83 176 0.0 2.6 0.00 0.00 0.00 87 1015.3
20260902003703 83 255 0.0 2.6 0.00 0.00 0.00 86 1015.1
20260902003159 83 214 1.7 3.5 0.00 0.00 0.00 86 1015.2
20260902002654 83 215 1.7 2.6 0.00 0.00 0.00 85 1015.4
20260902002149 83 297 0.0 3.5 0.00 0.00 0.00 85 1015.1
20260902001644 84 207 0.0 1.7 0.00 0.00 0.00 85 1015.3
20260902001143 84 255 0.0 1.7 0.00 0.00 0.00 84 1015.2
20260902000639 85 221 1.7 3.5 0.00 0.00 0.00 83 1015.3
20260902000134 85 226 1.7 2.6 0.00 0.00 0.00 83 1015.4
20260901235633 86 245 0.0 3.5 0.00 0.00 0.00 82 1015.2
20260901235129 86 217 0.0 2.6 0.00 0.00 0.00 82 1015.5
20260901234628 87 228 0.9 3.5 0.00 0.00 0.00 80 1015.3
20260901234123 87 230 0.9 3.5 0.00 0.00 0.00 80 1015.3
20260901233618 88 185 0.0 2.6 0.00 0.00 0.00 78 1015.5
20260901233114 89 299 0.0 1.7 0.00 0.00 0.00 79 1015.6
20260901232614 89 251 0.9 1.7 0.00 0.00 0.00 79 1015.7
20260901232109 89 145 0.0 1.7 0.00 0.00 0.00 76 1015.7